Theta_e
333 325 320 319 307 308 306 309 312 313 315 326 319 329 326 328 324 322 350 354 355 358 362 360 362 363 363 363 363 362 362 362 363 362 361 361 361 362 362 362 362 361 358 355 354 355 355 355 355
324 319 318 314 304 302 307 310 308 313 315 317 317 331 330 328 341 344 346 355 357 359 360 358 362 362 363 362 361 361 362 362 362 362 361 361 362 362 362 361 361 358 356 354 353 354 354 354 354
319 316 311 308 304 302 306 309 311 313 315 314 314 334 333 331 343 345 352 356 358 358 359 359 362 362 362 361 360 360 360 360 361 361 361 361 361 361 361 361 360 358 356 353 353 354 356 355 354
316 314 311 303 301 304 307 310 311 311 315 315 315 327 336 345 345 349 355 357 356 357 358 360 361 361 361 361 360 360 360 360 361 361 361 361 361 360 360 360 360 358 356 352 353 355 356 356 355
314 310 303 301 302 304 308 311 311 311 311 315 323 328 332 347 353 356 355 355 354 356 357 359 360 361 361 361 360 359 359 359 360 360 361 360 360 360 360 359 358 356 354 353 353 354 356 356 355
307 308 299 298 301 304 308 311 311 310 311 325 329 330 333 351 353 354 355 354 355 356 357 357 360 360 360 360 359 358 358 358 359 359 359 359 358 358 358 358 357 357 356 355 355 355 355 354 354
305 303 300 300 301 303 306 312 310 309 311 323 332 328 335 347 354 356 355 355 356 357 356 356 356 359 360 359 358 358 357 357 357 357 357 358 358 358 358 358 357 356 355 354 354 354 354 353 353
307 304 300 301 300 303 309 308 310 310 310 317 327 324 329 345 354 355 354 353 354 355 354 355 356 353 354 357 359 358 357 357 357 357 357 357 357 358 358 355 356 354 354 353 353 353 352 351 350
306 300 298 300 301 304 309 312 312 313 314 316 317 319 329 349 351 350 349 349 351 352 354 354 352 354 354 354 355 357 357 358 357 357 358 355 353 356 357 356 354 354 353 352 351 351 350 349 348
302 298 300 305 306 306 309 313 312 312 313 314 318 321 344 347 346 344 344 343 346 348 351 353 353 353 353 351 356 355 354 354 354 354 355 352 354 354 352 354 355 354 354 354 353 352 351 348 339
301 297 303 304 307 310 309 312 316 312 311 314 315 316 333 344 344 343 342 342 344 348 351 352 355 355 352 350 353 354 354 355 356 356 357 356 353 353 351 351 351 353 353 349 350 349 346 344 343
297 300 302 304 309 311 309 312 314 315 314 318 318 314 314 327 343 343 342 343 344 347 350 353 355 355 355 352 352 353 352 354 354 355 357 355 353 353 353 351 351 352 350 350 350 347 348 347 345
298 301 301 305 307 310 312 311 312 316 320 321 318 317 316 316 320 344 347 346 346 346 349 352 356 356 356 356 354 354 353 353 354 355 356 355 352 352 352 352 352 352 352 351 351 350 349 348 347
301 301 302 303 307 311 309 311 312 315 319 319 317 316 317 317 317 318 341 347 348 349 349 352 354 357 358 357 357 356 356 356 356 356 357 358 355 354 353 352 351 351 351 351 351 351 351 350 349
301 297 299 302 303 305 311 307 308 314 317 317 315 315 316 318 320 314 319 339 350 351 353 353 353 356 357 357 357 357 356 356 355 356 359 358 356 352 354 353 353 353 354 354 353 352 352 350 349
297 297 293 299 302 305 308 300 311 315 313 313 311 311 314 317 321 318 316 321 340 349 351 355 353 353 355 356 356 356 356 356 356 356 357 357 356 355 353 354 354 355 355 353 352 351 349 349 348
294 290 292 295 302 302 305 300 307 310 309 310 313 312 315 318 319 319 317 318 324 329 335 348 355 353 354 355 354 356 358 356 356 356 356 357 356 356 356 355 355 358 354 353 353 352 350 348 348
291 291 292 293 298 301 299 298 304 307 307 306 312 314 313 313 316 318 318 318 324 330 337 342 347 351 352 352 353 353 354 355 355 355 355 357 357 357 357 356 357 356 353 351 350 349 350 348 347
297 294 294 296 299 298 298 299 302 305 308 307 308 308 310 311 314 316 315 318 322 330 337 344 345 349 348 347 348 348 348 350 350 352 354 353 353 353 354 353 352 352 349 349 349 347 344 343 347
296 294 295 297 299 298 298 298 302 304 304 305 306 307 311 311 312 314 315 319 324 333 337 344 346 348 349 348 344 347 348 349 352 354 356 356 353 350 348 347 344 345 342 344 343 343 338 338 343
295 294 295 295 298 300 298 296 298 302 304 304 304 307 308 309 310 311 314 318 323 330 335 339 343 344 342 340 334 334 334 335 336 337 337 340 342 343 343 341 342 342 341 334 338 338 339 333 336
293 298 297 296 295 291 297 290 298 301 300 302 304 304 305 307 310 312 316 317 321 326 329 332 333 335 335 336 335 340 331 327 328 329 330 333 334 334 337 339 339 340 335 336 334 334 336 337 331
296 300 298 297 296 294 294 292 297 298 298 301 304 307 308 309 309 310 311 318 319 322 323 327 328 329 331 333 335 329 331 327 328 328 332 334 334 335 335 337 337 336 333 335 336 336 336 334 333
300 297 296 295 295 289 294 293 294 296 298 302 305 306 306 308 308 310 313 316 317 320 322 325 327 329 330 330 330 333 334 331 326 328 326 327 328 331 334 335 336 335 333 333 332 334 335 335 335
298 295 289 287 287 287 292 292 295 298 302 303 304 305 306 306 308 309 312 314 317 320 321 324 325 321 323 324 325 326 326 327 328 330 326 328 326 328 335 336 335 331 333 333 332 333 332 332 330
298 296 290 283 285 288 293 290 295 302 303 303 305 306 306 305 306 306 308 309 310 311 312 314 315 317 318 319 319 321 323 321 323 324 324 323 324 326 333 335 334 332 332 331 332 329 328 330 329
297 294 296 291 290 290 292 295 301 302 302 304 304 304 304 306 307 307 308 309 310 312 312 314 314 314 314 314 316 317 319 320 321 323 325 324 326 326 328 331 332 331 332 331 331 326 327 328 328
300 300 293 294 286 284 289 291 294 299 300 302 302 303 304 305 305 306 306 307 308 309 310 311 311 311 311 312 313 312 313 314 315 316 316 318 322 324 326 328 329 330 330 330 329 326 327 326 324
297 296 296 296 293 287 285 290 300 301 302 301 302 303 303 304 304 305 305 306 306 307 307 308 308 309 309 310 311 311 311 312 312 312 313 314 315 316 315 318 323 326 327 327 326 326 325 323 324
298 296 298 294 290 292 292 291 300 302 302 303 302 302 303 303 304 304 304 305 305 305 305 306 307 307 307 308 309 309 310 310 310 310 311 312 312 313 313 313 314 315 317 323 324 323 322 321 321
Wind_Speed
8 9 1 2 5 3 4 5 5 3 2 2 8 5 4 4 2 2 2 9 14 19 17 16 13 13 12 13 15 16 17 17 17 18 18 17 16 15 14 12 11 11 11 10 10 11 11 11 11
7 4 1 2 5 8 6 4 6 6 7 13 5 6 5 2 1 7 13 10 18 18 17 17 15 14 12 13 15 16 17 17 17 17 17 16 16 14 13 11 10 11 10 10 10 10 10 11 10
7 2 3 3 4 11 5 6 4 8 15 11 4 2 2 1 2 10 6 17 19 16 16 16 17 16 14 13 14 15 16 16 17 16 16 15 14 13 11 10 9 10 9 9 9 10 9 9 9
2 2 2 7 13 7 4 6 4 7 9 2 5 4 3 2 8 6 17 18 20 17 16 17 17 17 17 15 14 14 15 15 16 16 16 14 14 12 10 9 8 8 8 8 9 9 8 8 8
2 1 6 8 16 5 9 6 5 10 9 10 8 4 4 3 6 14 17 17 19 17 15 17 18 18 18 18 16 16 16 15 15 15 15 14 14 13 11 10 9 8 8 8 8 8 7 6 7
6 2 8 16 14 8 10 8 4 6 10 7 7 7 5 4 10 13 15 17 17 16 15 15 16 17 18 19 18 17 16 16 16 15 15 14 14 13 12 11 10 9 9 9 9 9 8 8 8
11 7 15 15 14 16 6 7 4 5 4 2 1 7 1 6 8 12 12 15 15 15 14 13 14 14 14 16 16 16 16 15 15 14 13 13 12 11 10 9 8 7 7 7 7 7 7 7 7
6 6 17 14 15 14 7 4 4 8 4 7 5 2 4 6 12 12 12 14 14 14 14 13 12 13 13 13 13 14 14 14 14 13 12 11 10 8 7 6 6 5 4 4 5 5 6 6 7
2 11 17 22 16 9 5 8 4 5 10 4 7 6 5 14 13 12 12 13 12 12 13 12 13 12 12 12 12 11 13 12 11 11 10 9 8 9 9 5 3 5 5 6 5 5 6 6 7
10 15 20 9 12 10 8 15 8 3 10 3 11 13 4 14 11 12 14 14 15 16 15 13 13 12 12 10 12 12 11 9 9 10 10 8 8 8 8 7 9 9 9 8 7 6 5 7 6
8 16 13 12 14 6 9 9 7 4 7 7 15 16 3 6 10 9 11 15 16 14 12 14 12 12 13 10 9 6 6 7 7 10 9 8 7 6 7 5 6 7 9 7 7 7 7 7 6
11 11 14 11 11 9 11 5 13 11 12 9 18 10 8 8 11 13 12 13 13 14 14 14 14 13 13 9 9 8 8 8 7 9 10 7 6 7 6 5 6 6 5 6 7 5 7 8 9
14 14 4 12 15 4 6 9 9 20 23 15 17 20 18 13 10 13 12 11 12 14 15 15 15 14 12 12 9 8 9 9 9 9 10 8 8 7 7 7 6 6 6 6 7 7 7 8 9
7 16 18 8 14 9 10 9 9 17 16 21 18 22 22 21 18 8 14 15 15 15 15 16 17 16 14 12 12 9 8 9 9 8 9 12 8 7 7 8 8 7 7 7 7 8 8 8 9
19 14 14 24 9 14 7 11 19 11 15 26 19 23 22 23 21 14 13 15 16 15 13 16 16 15 15 15 13 10 9 9 9 9 11 12 10 10 10 8 8 8 8 10 8 9 9 9 9
14 13 16 18 16 7 9 23 17 20 19 22 18 18 22 26 26 18 11 11 12 12 14 13 13 15 15 14 11 9 9 9 9 9 9 12 11 11 10 8 8 8 7 7 7 8 9 9 9
6 16 20 20 15 16 14 10 8 8 12 19 30 21 22 24 21 17 13 11 8 9 9 13 14 16 16 14 11 11 12 10 9 8 8 10 11 11 9 7 6 6 6 7 7 8 9 9 9
8 11 10 21 15 22 19 16 12 11 13 17 34 21 21 22 22 19 13 9 9 8 8 10 11 12 13 9 9 8 8 9 7 7 7 9 8 9 8 6 6 6 6 7 7 9 8 9 10
13 9 15 17 21 18 22 21 20 14 15 13 14 18 22 22 19 9 11 11 9 7 10 13 14 12 11 10 9 9 10 8 7 7 10 9 8 9 7 5 6 6 6 6 7 8 9 8 7
13 16 11 4 13 16 20 24 22 16 15 17 14 23 23 20 23 15 9 9 12 11 12 11 11 11 10 7 4 2 6 5 5 6 8 8 8 8 7 6 5 5 4 4 5 7 7 7 5
15 14 11 6 5 9 9 19 17 16 17 15 20 24 23 23 21 12 9 12 12 13 13 9 7 8 8 9 7 5 5 4 3 3 4 5 8 8 8 8 6 5 4 4 4 6 8 8 7
17 14 15 9 5 7 5 8 11 11 14 10 8 12 13 13 12 9 9 11 13 12 5 5 5 6 5 6 6 8 6 7 5 6 4 6 6 6 6 6 5 5 4 5 5 6 7 8 9
16 12 14 14 9 4 6 6 6 4 7 7 2 3 4 5 3 5 6 9 8 4 4 7 8 7 7 7 8 8 7 5 4 4 5 6 6 7 8 8 8 7 7 6 7 7 8 8 10
5 5 5 3 6 10 10 8 7 5 2 1 2 7 9 9 7 7 7 6 6 7 8 9 8 8 7 6 5 6 6 6 6 6 7 7 7 7 9 10 9 10 9 8 7 8 9 9 9
6 8 6 8 8 6 4 8 1 2 4 4 5 9 11 12 13 13 12 8 8 10 9 7 5 8 6 5 5 6 5 5 7 7 6 7 7 8 10 12 11 10 10 9 8 8 8 8 8
7 7 7 12 8 8 3 6 4 4 5 6 8 11 14 15 14 16 15 13 13 12 11 10 10 10 9 8 7 6 5 5 5 7 7 8 8 9 9 10 11 13 12 11 10 8 8 8 9
7 5 3 7 1 4 5 3 0 5 8 9 12 12 13 13 14 15 16 15 14 15 16 14 12 11 9 8 7 7 6 6 5 7 7 8 9 9 12 12 12 13 13 13 11 9 10 9 10
5 9 5 3 6 8 6 5 7 11 8 8 10 11 12 12 14 13 13 13 12 11 10 11 10 9 7 7 6 5 5 6 7 7 7 7 8 9 11 12 12 12 13 13 12 11 12 11 10
6 5 5 4 2 6 7 5 0 6 6 10 11 10 10 10 11 10 10 10 10 10 11 10 9 8 7 7 7 8 9 10 10 9 10 10 10 11 11 11 12 13 14 14 13 14 14 14 14
1 2 3 4 6 1 1 4 3 7 8 10 11 9 9 9 8 7 7 7 8 9 7 6 6 7 8 9 10 11 12 12 12 12 13 13 14 14 14 14 14 14 15 15 17 18 16 17 17
Wind_Direction
306 317 197 189 234 246 214 223 300 237 215 153 309 241 263 321 221 12 113 150 149 149 149 157 154 155 148 138 129 127 128 128 130 132 133 135 137 140 141 141 141 140 142 145 146 144 142 140 141
329 319 163 134 241 227 214 239 242 268 307 314 289 200 213 215 47 113 138 158 154 149 152 157 156 153 152 144 135 133 132 132 133 133 134 138 140 142 142 143 146 148 153 156 153 150 148 148 151
297 339 260 231 222 229 231 203 224 288 306 289 279 309 184 109 139 159 129 149 148 152 154 155 155 152 152 149 140 136 134 134 133 133 136 139 138 138 138 143 149 158 163 163 160 159 159 160 161
202 175 133 233 228 215 226 168 299 303 317 293 221 217 143 28 144 157 144 151 150 154 159 151 154 154 153 153 151 140 137 137 137 139 141 143 138 136 141 147 156 168 171 170 169 168 170 173 170
127 195 225 231 238 247 221 263 292 301 298 285 217 166 150 81 101 135 147 156 156 156 164 161 160 160 157 157 157 151 147 146 145 144 146 147 143 143 147 156 164 176 180 180 180 180 184 183 182
185 237 221 227 226 228 238 233 259 303 301 287 217 166 141 119 141 153 154 160 159 157 164 163 166 165 163 160 161 157 153 151 151 151 152 153 152 155 163 169 176 182 184 187 188 188 193 198 201
218 207 227 239 239 231 218 198 214 340 321 34 309 184 76 164 137 149 154 159 159 162 164 168 173 173 167 164 160 159 155 155 155 155 157 158 160 165 169 176 182 190 197 201 204 211 220 226 227
219 233 228 227 229 240 201 159 17 359 12 315 340 281 175 147 138 140 149 159 163 166 169 172 178 177 179 173 163 160 159 160 158 160 161 162 164 166 175 184 196 208 222 236 245 244 249 260 273
155 225 229 220 225 225 216 172 82 352 5 32 9 321 342 137 141 141 150 161 171 177 177 181 180 178 182 178 171 165 165 162 159 163 164 160 187 188 190 197 191 222 232 239 243 260 273 281 270
213 229 231 240 234 227 201 195 148 12 342 358 30 19 83 139 159 164 169 176 187 187 185 185 186 183 184 181 175 181 177 182 183 184 183 191 191 197 207 209 205 213 218 223 224 229 252 259 271
212 239 239 238 237 249 227 214 203 191 269 17 344 349 344 182 175 195 196 192 194 193 192 192 188 188 193 188 183 180 183 181 186 192 190 194 195 201 210 217 216 226 215 234 216 220 228 235 245
227 222 242 249 232 227 223 249 224 205 245 333 330 342 346 276 215 203 208 202 198 198 200 194 196 194 197 191 192 185 188 186 189 195 195 194 201 207 222 227 231 234 237 245 242 247 253 246 247
227 222 198 228 249 212 166 203 224 217 237 299 321 326 325 320 269 249 225 219 208 208 202 202 199 199 198 197 194 197 199 193 191 193 197 204 211 216 222 232 239 246 249 250 255 256 263 265 262
213 233 241 254 233 213 212 190 173 228 232 273 303 305 311 317 311 252 223 222 215 211 206 202 204 200 199 202 198 198 198 199 195 200 202 205 213 219 225 228 235 243 250 256 261 267 272 270 270
228 251 233 233 242 234 189 229 215 205 243 245 274 285 295 303 305 284 240 215 222 221 208 205 202 199 202 202 198 201 200 197 204 206 209 207 208 217 230 230 234 236 239 251 254 258 258 262 263
220 228 235 232 220 206 202 249 227 209 219 244 278 287 290 293 290 283 264 250 220 214 211 205 201 197 202 201 197 195 198 200 211 208 204 209 211 214 218 227 232 240 242 253 259 262 266 266 265
198 225 219 228 218 218 211 256 263 225 185 225 259 277 277 279 276 268 251 244 221 219 210 210 203 203 200 197 194 198 199 205 210 212 211 212 216 218 228 239 249 248 255 249 252 257 259 271 269
203 223 226 222 202 220 212 230 216 163 193 227 244 275 276 267 258 252 255 247 246 200 202 206 202 199 191 186 190 199 204 210 205 208 209 205 213 215 220 238 252 253 255 257 257 263 271 269 280
247 247 230 225 212 206 218 226 231 219 206 207 235 264 264 266 260 231 245 232 217 218 203 204 190 184 176 177 179 196 205 200 205 208 210 213 218 218 214 225 228 230 245 261 270 273 273 270 257
240 260 239 296 192 203 216 229 228 215 221 213 206 239 258 275 280 274 232 213 204 200 214 207 198 180 179 172 166 190 182 205 218 209 204 197 189 186 188 194 202 213 235 244 255 260 275 265 237
234 245 252 242 153 221 195 229 233 219 229 215 220 227 239 245 251 241 220 216 207 210 208 211 193 183 173 156 129 112 106 94 141 176 173 186 183 182 185 185 188 196 218 251 262 267 271 272 274
243 228 242 249 225 230 223 214 203 178 197 210 201 200 218 218 219 221 214 213 212 215 189 157 136 153 147 150 149 150 161 166 190 189 183 184 196 198 195 196 198 209 227 236 254 263 266 263 263
244 224 228 235 229 223 190 238 165 158 209 167 232 57 33 28 8 263 223 225 227 218 158 118 119 134 149 165 168 166 173 189 178 182 188 206 215 220 214 209 205 211 220 223 233 248 254 263 269
131 141 124 155 206 231 215 234 193 167 118 128 69 27 26 18 26 34 61 104 126 144 130 127 144 161 171 191 192 207 195 190 189 204 215 216 222 221 223 218 216 218 217 218 226 232 244 256 266
189 185 178 193 199 227 172 202 50 51 29 340 20 52 56 53 52 49 50 69 105 112 111 121 83 63 47 26 12 2 346 329 289 281 259 254 231 223 222 216 218 223 224 224 223 227 236 241 252
193 219 232 216 191 179 167 210 126 23 52 85 89 77 64 57 55 55 54 57 61 60 62 67 63 53 32 23 13 358 339 301 290 286 283 274 270 274 286 257 232 224 228 228 222 231 239 244 245
155 207 83 107 29 205 148 107 22 97 85 88 81 69 60 62 64 69 67 62 60 60 57 61 66 65 57 53 49 41 24 8 339 315 297 283 282 275 267 261 253 252 243 233 228 233 238 237 247
233 132 176 155 191 223 163 185 145 163 126 92 69 73 77 73 69 66 66 63 59 56 58 53 49 44 33 22 15 7 346 334 321 312 308 311 306 292 280 267 258 254 255 257 253 241 240 241 245
152 160 79 88 352 237 230 164 209 151 130 104 101 96 87 77 74 70 62 52 48 41 36 33 27 17 9 359 343 326 316 312 305 299 299 296 293 286 284 281 276 265 259 255 253 255 261 255 248
347 107 175 184 177 92 310 132 67 124 124 127 125 119 106 96 88 71 52 40 30 26 21 20 6 347 336 325 321 317 312 311 305 300 296 294 289 286 282 280 275 269 266 263 256 254 252 252 252